Powrót do katalogu

STARLINK-34353

AktywnyŁącznośćVLEO
NORAD 64278·PAYLOAD·🇺🇸 United States

Wystrzelony Jun 4, 2025 z Vandenberg Space Force Base

Loading…

Następne Przeloty (najbliższe 24 godziny)

TLE

ŚwieżeSource: CelesTrak SupGP

Epoka: Sep 15, 2026, 03:40 UTC

1 64278C 25120Y   26258.15326389  .00038296  00000+0  11310-2 0  2580
2 64278  53.1598 314.5536 0001357  84.8083 268.6451 15.34384023    10

Śledź STARLINK-34353 w czasie rzeczywistym z AllMySat

Download on the App Store